Wind_Speed
21 17 16 17 10 12 10 11 23 19 17 17 13 13 11 9 11 13 11 9 6 4 3 2 1 1 2 3 4 5 6 7 4 2 1 1 1 1 3 4 7 6 4
13 14 15 16 10 15 15 9 18 21 24 20 17 15 12 10 9 7 6 5 5 4 3 2 2 3 4 4 3 3 4 5 5 2 2 2 3 2 2 2 2 5 9
23 23 19 17 17 17 20 18 19 22 19 17 13 14 12 9 8 7 6 6 5 4 3 3 3 3 3 4 4 4 4 3 4 4 3 4 6 5 4 5 4 4 4
31 21 20 23 13 8 12 10 14 12 10 10 9 10 9 9 7 6 5 6 5 4 4 3 3 3 4 4 4 4 4 4 4 5 5 5 6 8 10 9 8 7 6
28 12 10 11 14 11 10 12 11 10 9 8 7 7 7 6 7 6 5 5 5 5 4 3 3 4 4 5 5 5 5 4 4 5 5 7 6 8 8 10 10 11 11
23 17 10 12 13 12 10 8 9 9 9 8 8 8 8 8 8 7 7 6 4 4 2 2 2 3 3 4 5 6 6 7 8 6 8 7 9 9 10 11 11 13 12
14 15 8 6 13 11 10 9 10 10 9 9 9 8 8 8 7 6 5 5 4 4 4 3 2 2 2 2 3 4 5 6 7 9 10 9 9 11 11 13 13 13 14
17 13 7 10 11 10 10 10 11 11 11 9 9 9 9 9 9 8 7 6 5 4 5 4 4 3 3 4 4 5 6 6 7 8 10 11 11 12 13 13 14 15 16
7 6 10 9 7 10 12 11 11 10 9 9 10 10 10 9 8 9 9 8 7 6 5 5 6 6 7 6 6 6 8 8 8 9 10 12 13 14 15 16 18 19 19
11 11 12 13 13 11 9 9 10 9 10 10 10 10 9 8 8 9 8 8 8 8 8 8 9 8 8 6 6 7 10 12 11 13 15 17 18 18 19 19 20 20 21
10 10 11 9 9 9 11 11 10 10 10 10 10 9 10 11 12 12 11 10 9 8 8 8 7 7 7 9 9 13 14 14 16 16 17 19 20 20 21 22 23 24 24
9 10 10 10 10 11 11 11 11 11 11 11 12 13 14 15 15 15 14 13 12 10 9 10 10 12 12 14 17 20 21 20 19 20 20 21 22 21 20 20 20 21 22
11 10 9 10 11 13 12 13 12 13 12 14 16 18 18 18 18 19 18 17 17 15 14 15 15 17 19 21 24 24 24 24 23 23 23 23 23 24 25 26 28 29 29
13 12 12 13 13 14 15 15 16 16 17 20 22 22 23 22 23 22 22 22 21 21 20 21 22 23 24 26 28 29 29 29 29 29 27 26 26 27 30 32 34 36 38
17 18 18 19 19 19 21 21 21 22 22 24 25 25 24 24 24 25 26 27 28 26 26 27 28 28 29 31 32 32 31 31 31 30 31 32 33 34 36 37 38 40 43
23 24 24 25 24 24 24 24 24 24 25 24 23 22 22 22 23 25 27 29 29 30 32 33 33 33 34 36 37 37 34 34 34 35 37 39 41 42 43 44 46 48 50
28 29 29 29 28 27 28 28 27 28 29 27 25 25 26 26 26 28 30 31 33 34 36 37 37 38 38 40 42 42 39 38 39 40 42 45 47 49 51 53 55 57 58
30 31 31 32 32 31 31 30 30 31 31 30 30 31 32 32 33 33 33 34 36 38 40 41 42 43 44 45 47 47 45 44 44 44 45 48 50 54 57 59 60 59 62
32 33 33 33 34 34 34 34 34 34 34 33 33 34 36 37 38 38 39 40 42 43 44 45 47 48 48 50 51 50 51 51 51 51 53 54 57 61 63 63 65 67 69
34 35 36 36 36 36 37 37 37 37 37 37 38 38 39 40 41 43 44 45 46 48 49 50 50 52 54 54 53 52 53 55 55 56 58 61 63 64 67 69 71 72 74
35 37 37 38 38 39 40 40 41 40 40 40 41 41 42 43 45 46 47 48 49 50 51 52 53 55 59 60 60 58 59 60 60 62 63 65 67 71 74 75 76 78 80
37 39 39 39 39 41 41 41 41 41 41 41 41 43 44 46 47 48 49 50 51 51 52 53 55 56 59 63 65 65 62 64 64 68 69 70 73 76 79 81 82 84 86
39 40 40 40 40 42 41 42 42 40 41 42 43 45 45 46 48 49 50 51 52 53 54 56 59 61 62 64 66 68 68 70 70 71 72 74 77 79 82 84 86 88 90
42 43 43 41 43 43 42 42 41 42 42 43 44 44 45 48 49 51 52 54 56 57 58 60 62 64 66 68 70 74 76 78 80 79 81 84 86 87 85 87 90 94 97
46 45 45 44 44 43 43 43 44 43 43 43 44 45 47 49 51 54 56 58 60 62 64 66 68 70 71 73 75 77 80 82 84 86 87 88 89 89 91 93 96 100 104
47 46 44 45 45 44 44 45 45 44 44 44 45 47 48 51 54 57 58 60 62 64 67 69 71 73 75 77 80 83 84 87 89 89 88 88 89 89 93 96 100 103 109
Wind_Direction
229 213 205 210 270 220 209 231 228 232 232 189 173 173 184 193 191 187 187 184 183 192 196 222 251 7 24 20 29 34 33 34 40 48 50 33 51 1 19 294 281 283 274
158 197 211 223 256 187 202 195 231 207 191 172 171 167 166 162 173 179 187 182 202 220 231 244 287 307 326 341 350 6 20 21 24 8 352 347 333 354 342 337 335 296 281
151 157 179 194 162 152 152 151 144 170 175 168 167 163 156 158 182 197 204 213 216 216 218 237 253 282 301 323 334 342 346 346 349 18 349 319 322 336 341 339 332 312 319
157 148 145 164 183 107 135 151 154 146 143 155 147 140 152 172 178 198 206 217 212 210 207 228 254 275 289 291 293 303 312 320 327 340 324 321 330 325 327 325 322 321 302
207 158 147 139 128 127 128 139 145 153 164 154 165 169 178 185 188 195 203 212 209 220 210 222 239 263 285 290 298 302 302 301 296 303 297 300 304 304 307 315 321 321 319
221 207 170 151 139 146 148 148 162 168 184 174 184 178 188 195 195 199 205 212 206 217 200 244 260 273 279 299 320 321 322 323 322 318 293 295 295 295 297 299 303 308 310
188 193 171 186 171 164 169 174 176 179 183 181 184 182 191 197 190 180 172 164 153 132 113 103 90 86 46 32 21 356 355 349 355 342 332 334 327 318 309 301 299 297 298
212 217 187 190 173 178 181 183 188 190 188 193 191 185 179 169 164 160 165 173 170 187 187 189 211 230 249 279 297 305 304 316 318 312 312 318 317 314 314 311 309 306 301
197 208 196 186 187 201 205 201 205 199 180 178 176 173 178 179 181 185 192 206 213 229 240 254 260 268 272 275 288 304 316 322 321 313 313 309 309 309 305 304 305 306 305
213 213 210 202 208 213 213 208 195 181 181 186 192 199 198 205 213 218 215 225 232 242 248 245 251 255 264 275 290 303 311 309 313 312 308 304 305 304 302 301 302 300 298
224 215 219 214 210 208 202 197 189 196 201 208 213 223 226 228 227 230 234 235 239 244 252 260 259 257 266 282 279 284 293 293 295 295 295 299 297 295 292 294 296 297 296
232 226 226 215 205 198 204 213 214 217 218 228 237 239 238 238 238 237 232 232 231 240 248 264 274 280 282 278 276 279 283 285 288 292 290 287 289 291 293 297 300 297 297
228 223 217 219 220 224 228 232 235 240 245 250 251 250 248 246 248 244 239 242 247 256 272 283 284 284 281 280 280 282 285 286 288 289 295 297 291 293 296 300 304 302 298
239 238 235 235 235 239 241 245 250 256 255 254 253 251 250 249 251 252 249 252 256 264 278 285 285 283 283 283 285 288 289 288 287 287 290 291 290 292 295 298 299 301 303
244 244 242 242 241 242 243 245 245 244 245 247 249 252 255 257 259 257 253 254 258 268 278 280 283 282 282 283 284 285 283 281 280 279 281 283 286 288 291 293 294 295 298
255 253 250 249 248 249 250 251 250 249 248 255 260 264 268 268 265 263 263 265 270 274 277 279 281 281 283 285 289 287 283 280 280 280 282 285 288 289 289 290 290 291 291
257 255 255 256 256 256 255 255 254 254 256 262 269 272 272 273 273 273 274 277 278 278 278 278 279 281 284 285 286 285 284 282 280 280 280 285 290 290 291 292 292 293 293
266 263 260 257 256 255 254 256 258 261 264 269 272 274 273 273 273 275 277 278 278 278 278 279 280 281 282 283 284 285 284 283 282 284 287 288 289 291 290 290 291 289 289
268 264 263 260 258 256 256 258 261 264 268 272 274 275 275 276 277 278 277 277 278 279 280 281 282 283 285 284 286 287 286 287 288 290 290 291 291 291 293 291 290 288 287
272 265 263 260 259 258 258 259 261 265 267 270 271 272 273 274 275 275 276 277 279 281 282 283 283 283 282 283 285 287 288 288 288 288 289 291 291 291 291 290 289 289 288
270 265 261 260 259 259 259 259 261 264 267 267 268 270 272 274 276 277 278 279 280 281 282 282 283 285 283 283 284 286 288 289 289 290 291 291 293 293 292 291 291 289 289
270 265 263 260 260 258 259 260 261 263 264 266 269 272 275 277 278 278 280 281 283 284 285 285 285 286 287 287 286 285 286 290 292 292 294 295 295 294 293 291 290 290 290
268 265 261 259 259 259 260 260 261 263 266 270 273 276 278 280 281 282 282 284 285 286 286 287 288 288 289 289 289 289 288 288 288 290 293 294 295 295 293 291 291 290 289
265 260 258 257 257 259 260 260 262 265 269 272 275 277 279 280 282 283 285 286 287 288 289 289 289 290 290 291 292 293 293 293 291 289 288 289 290 293 292 292 292 292 291
264 261 257 256 257 257 258 260 263 266 269 272 275 277 279 281 282 284 285 287 288 289 289 290 290 291 291 291 291 292 293 294 294 292 289 291 293 294 294 293 293 293 292
260 258 256 254 255 255 257 260 264 267 269 271 273 276 279 282 284 286 287 287 288 288 288 289 290 290 291 292 294 295 295 295 294 294 294 294 295 295 294 294 293 292 290
Height
5820 5823 5825 5827 5828 5828 5829 5828 5829 5830 5832 5834 5834 5836 5838 5839 5840 5842 5843 5843 5843 5844 5844 5844 5844 5844 5843 5843 5843 5842 5842 5842 5843 5843 5843 5844 5844 5844 5845 5846 5847 5847 5847
5816 5822 5823 5824 5826 5824 5827 5826 5826 5828 5830 5830 5832 5834 5836 5838 5841 5841 5842 5842 5843 5843 5843 5843 5843 5843 5843 5842 5842 5842 5842 5842 5842 5843 5843 5843 5843 5844 5844 5845 5845 5846 5846
5815 5818 5818 5821 5821 5822 5825 5825 5823 5824 5825 5828 5831 5832 5835 5837 5839 5840 5840 5840 5841 5841 5841 5841 5841 5841 5841 5841 5841 5841 5841 5841 5841 5842 5843 5843 5843 5843 5844 5844 5844 5844 5844
5812 5811 5816 5819 5818 5820 5822 5824 5824 5825 5826 5830 5831 5832 5834 5836 5837 5838 5839 5839 5839 5839 5839 5839 5839 5839 5839 5839 5839 5839 5840 5840 5841 5841 5841 5842 5843 5843 5843 5844 5844 5844 5844
5810 5812 5813 5818 5819 5821 5824 5824 5826 5827 5829 5830 5831 5832 5833 5834 5836 5837 5837 5838 5837 5838 5837 5837 5837 5837 5837 5838 5838 5838 5838 5839 5839 5840 5839 5839 5840 5841 5841 5842 5843 5843 5843
5812 5814 5817 5818 5820 5822 5824 5824 5826 5827 5829 5829 5830 5831 5832 5833 5833 5834 5835 5837 5836 5837 5835 5835 5835 5835 5835 5836 5836 5837 5837 5837 5838 5839 5837 5838 5838 5838 5839 5839 5840 5840 5841
5812 5815 5814 5816 5820 5822 5823 5825 5826 5827 5827 5828 5829 5829 5831 5832 5832 5833 5834 5834 5835 5834 5833 5833 5834 5834 5834 5834 5834 5835 5836 5836 5836 5836 5836 5836 5836 5837 5837 5836 5837 5838 5838
5813 5815 5815 5817 5818 5819 5821 5823 5824 5824 5824 5826 5827 5828 5830 5830 5830 5831 5832 5833 5832 5832 5831 5831 5831 5831 5830 5831 5832 5833 5832 5832 5834 5834 5834 5834 5835 5834 5834 5834 5834 5834 5835
5813 5814 5814 5815 5816 5817 5819 5820 5822 5823 5823 5825 5826 5827 5829 5828 5828 5829 5829 5830 5829 5831 5830 5830 5830 5829 5830 5828 5829 5830 5830 5830 5830 5830 5830 5831 5831 5832 5832 5832 5832 5832 5832
5811 5812 5813 5813 5816 5817 5818 5820 5820 5820 5822 5824 5825 5826 5825 5826 5826 5827 5827 5828 5828 5828 5828 5827 5827 5826 5827 5826 5826 5827 5827 5827 5827 5827 5827 5827 5827 5828 5828 5828 5828 5828 5828
5811 5811 5812 5813 5813 5814 5818 5820 5819 5820 5821 5822 5822 5823 5824 5824 5825 5824 5824 5824 5824 5824 5824 5825 5823 5824 5822 5823 5824 5824 5824 5824 5823 5823 5823 5822 5822 5822 5823 5823 5823 5823 5823
5809 5810 5811 5812 5812 5814 5816 5817 5817 5818 5818 5819 5820 5821 5821 5822 5821 5821 5821 5821 5821 5821 5821 5821 5819 5820 5818 5819 5820 5820 5819 5818 5817 5817 5817 5817 5816 5817 5817 5817 5817 5818 5817
5806 5807 5807 5809 5811 5813 5814 5815 5814 5815 5814 5815 5817 5818 5818 5818 5817 5817 5816 5817 5818 5817 5816 5816 5814 5814 5814 5814 5815 5814 5813 5812 5812 5812 5812 5812 5811 5811 5812 5812 5812 5812 5812
5804 5804 5805 5807 5808 5809 5810 5811 5811 5810 5811 5813 5814 5814 5813 5813 5812 5812 5812 5812 5812 5813 5809 5808 5809 5809 5808 5809 5809 5808 5807 5806 5806 5805 5805 5805 5805 5805 5805 5804 5804 5805 5805
5801 5802 5803 5804 5805 5805 5807 5808 5807 5808 5809 5811 5809 5808 5808 5806 5806 5806 5806 5807 5807 5805 5802 5803 5803 5803 5802 5802 5802 5801 5799 5798 5798 5798 5798 5797 5797 5796 5796 5796 5795 5795 5795
5798 5799 5799 5800 5800 5800 5801 5801 5802 5802 5804 5803 5802 5801 5800 5800 5800 5800 5800 5800 5798 5797 5796 5796 5796 5795 5795 5795 5794 5793 5792 5790 5790 5789 5789 5788 5788 5787 5786 5786 5785 5785 5785
5793 5793 5793 5793 5793 5793 5794 5795 5795 5796 5796 5794 5794 5793 5793 5792 5792 5792 5791 5790 5789 5789 5789 5789 5788 5788 5787 5786 5786 5785 5783 5782 5781 5780 5779 5779 5776 5775 5775 5774 5774 5772 5771
5785 5785 5785 5785 5785 5786 5787 5787 5787 5787 5786 5785 5785 5785 5785 5785 5784 5784 5783 5782 5782 5781 5781 5780 5779 5778 5777 5776 5776 5774 5773 5772 5771 5769 5767 5765 5763 5761 5760 5760 5759 5757 5756
5778 5778 5777 5778 5778 5778 5778 5779 5779 5778 5778 5778 5778 5777 5777 5776 5776 5775 5775 5774 5773 5772 5771 5770 5768 5767 5766 5766 5765 5763 5761 5760 5758 5756 5753 5751 5749 5747 5745 5744 5743 5740 5738
5769 5769 5769 5769 5770 5770 5770 5770 5770 5770 5770 5770 5769 5769 5768 5767 5767 5766 5765 5764 5762 5761 5760 5758 5757 5755 5754 5755 5754 5752 5749 5746 5745 5742 5739 5735 5732 5730 5727 5725 5723 5720 5717
5759 5759 5759 5760 5760 5761 5761 5761 5760 5761 5760 5761 5760 5760 5759 5758 5757 5755 5754 5752 5751 5749 5747 5746 5744 5742 5740 5740 5739 5738 5734 5731 5729 5724 5721 5717 5713 5710 5707 5704 5702 5700 5696
5748 5748 5748 5749 5750 5750 5750 5750 5750 5750 5751 5750 5750 5749 5748 5747 5745 5744 5742 5741 5739 5737 5735 5733 5731 5729 5726 5724 5723 5722 5722 5717 5713 5708 5704 5698 5694 5690 5686 5681 5678 5674 5671
5738 5737 5737 5738 5738 5737 5739 5739 5740 5740 5740 5739 5739 5737 5736 5735 5733 5732 5730 5728 5726 5724 5721 5718 5716 5713 5711 5707 5704 5701 5699 5698 5697 5694 5688 5681 5674 5669 5663 5659 5654 5649 5645
5726 5726 5726 5727 5726 5727 5728 5728 5728 5728 5728 5727 5726 5725 5724 5723 5721 5719 5716 5714 5711 5709 5707 5704 5700 5697 5694 5690 5686 5680 5677 5673 5671 5674 5669 5662 5655 5648 5641 5634 5626 5619 5615
5712 5714 5714 5715 5715 5715 5716 5716 5716 5716 5716 5715 5714 5713 5711 5710 5708 5705 5703 5700 5697 5694 5691 5688 5683 5679 5675 5672 5668 5663 5658 5652 5646 5646 5649 5642 5634 5624 5616 5609 5600 5589 5583
5699 5701 5703 5702 5702 5703 5704 5704 5704 5704 5703 5702 5701 5699 5698 5695 5693 5691 5688 5685 5682 5678 5674 5671 5666 5662 5658 5652 5647 5642 5637 5631 5625 5619 5618 5615 5611 5603 5591 5584 5574 5563 5551